Find Starlink 3680

NORAD ID: 51969 Int'l Des: 2022-025 Owner: SPXS Country: US Constellation: starlink operational
LEOCIRCULAR

当前视图

正在加载3D地球...

About Starlink 3680

Starlink 3680 (NORAD 51969) is a starlink constellation satellite (v1.5) launched Mar 9, 2022 by SPXS of US. It operates in LEO, CIRCULAR orbit with a mass of 297.00 kg.

关于 Starlink 3680

正在加载描述...

即将过境

Passes for default location (London). Set your location on the main map for personalized predictions.

高度历史

Loading altitude history...

两行轨道根数

1 51969U 22025P 26170.29882701 -.00000657 00000-0 -94090-5 0 9991
2 51969 53.1604 271.6226 0001094 53.0065 307.1037 15.31698223236574
Epoch: Jun 19, 2026 • Age: 10 hours

当前状态

高度 476.0 km
速度 7.63 km/s
星下点 49.59°N, 134.88°W
发射日期 Mar 9, 2022
运行时间 4.2 years
类型 internet

技术详情

分类 Payload
质量 297.00 kg
干质量 275.00 kg
总质量 297.00 kg
长度 0.20 m
直径 2.80 m
跨度 9.00 m
形状 Box + pan
制造商 SPXS
平台类型 Starlink
阶段状态 In Orbit
所有者/国家 SPXS/US

Most Searched